ELECTRON KICK STAGE R/B

基本信息
目录编号:
65973
目录名称:
ELECTRON KICK STAGE R/B
国际标识:
2025-229C
轨道中心:
EARTH
物体状态:
在轨
发射日期:
2025-10-14 UTC
国别:
美国 (US)
轨道信息
数据来源: 国际轨道数据
星历时间: 2026-09-05T13:46:11+0800
半长轴: 6925.693km
偏心率: 0.0040364
轨道倾角: 41.981°
近地点辐角: 217.600°
升交点赤经: 201.692°
平近点角: 142.200°
近地点: 519.601km
远地点: 575.511km
周期: 95.599分钟
每日圈数: 15.062879
详细信息
发射场:
RLLC
轨道高度:
LEO
数据来源:
AOE Integration Group
参考系:
TEME
时间系统:
UTC
历元类型:
SGP4
2D轨道图
3D轨道图
轨道高度分析图
轨道倾角分析图
轨道综合分析图
查看轨道综合分析图